Date String (YYYY-MM-DD hh:mm:ss) UTC,Instrument flags,Ambient pressure (hPa),Sample flow (lpm),Bypass flow (lpm),Sample temperature (°C),Ambient temperature (°C),ASC tube jacket temperature (°C),LED temperature (°C),Box temperature (°C),Sample RH (%),Span deviation,Mass concentration (μg/m³),Mass concentration (μg/m³),Mass concentration (μg/m³)
DateTimeUTC,F1_M11,P_M11,Q1_M11,Q2_M11,T1_M11,T2_M11,T3_M11,T4_M11,T5_M11,U1_M11,ZSPAN_M11,X0_M11,X2_M11,X1_M11
2022-10-23 21:00:00,,0805.6,4.99,0.00,29.8,28.0,00.0,38.8,31.5,08.8,0000.0,0004.60,0001.00,0000.32
2022-10-23 21:01:00,,0805.6,4.99,0.00,29.8,28.1,00.0,38.7,31.6,08.8,0000.0,0004.71,0000.99,0000.31
2022-10-23 21:02:00,,0805.7,5.02,0.00,29.8,28.1,00.0,38.7,31.6,08.7,0000.0,0004.35,0000.94,0000.31
2022-10-23 21:03:00,,0805.7,4.99,0.00,29.8,28.1,00.0,38.7,31.6,08.6,0000.0,0004.98,0000.94,0000.32
2022-10-23 21:04:00,,0805.7,4.99,0.00,29.8,28.1,00.0,38.7,31.6,08.6,0000.0,0004.95,0000.93,0000.32
2022-10-23 21:05:00,,0805.7,5.02,0.00,29.8,28.2,00.0,38.7,31.5,08.7,0000.0,0004.84,0000.93,0000.33
2022-10-23 21:06:00,,0805.7,5.00,0.00,29.8,28.2,00.0,38.7,31.6,08.7,0000.0,0004.04,0000.94,0000.34
2022-10-23 21:07:00,,0805.7,4.99,0.00,29.8,28.2,00.0,38.7,31.6,08.7,0000.0,0004.51,0000.95,0000.34
2022-10-23 21:08:00,,0805.7,4.99,0.00,29.8,28.2,00.0,38.7,31.6,08.7,0000.0,0005.42,0000.97,0000.34
2022-10-23 21:09:00,,0805.7,5.01,0.00,29.8,28.3,00.0,38.7,31.6,08.7,0000.0,0005.41,0000.98,0000.35
2022-10-23 21:10:00,,0805.8,5.00,0.00,29.8,28.3,00.0,38.7,31.7,08.6,0000.0,0007.01,0001.01,0000.36
2022-10-23 21:11:00,,0805.8,4.99,0.00,29.9,28.3,00.0,38.7,31.7,08.7,0000.0,0007.83,0001.09,0000.36
2022-10-23 21:12:00,,0805.7,5.00,0.00,29.9,28.3,00.0,38.7,31.7,08.8,0000.0,0008.33,0001.14,0000.37
2022-10-23 21:13:00,,0805.5,5.00,0.00,29.9,28.3,00.0,38.7,31.7,08.7,0000.0,0008.84,0001.23,0000.38
2022-10-23 21:14:00,,0805.6,5.01,0.00,29.9,28.3,00.0,38.7,31.7,08.6,0000.0,0008.75,0001.32,0000.39
2022-10-23 21:15:00,,0805.7,4.99,0.00,29.9,28.3,00.0,38.7,31.7,08.6,0000.0,0009.11,0001.37,0000.40
2022-10-23 21:16:00,,0805.6,5.02,0.00,29.9,28.3,00.0,38.8,31.6,08.6,0000.0,0009.68,0001.37,0000.39
2022-10-23 21:17:00,,0805.6,4.99,0.00,29.9,28.2,00.0,38.8,31.6,08.6,0000.0,0009.44,0001.41,0000.39
2022-10-23 21:18:00,,0805.7,5.01,0.00,29.9,28.1,00.0,38.8,31.6,08.6,0000.0,0010.12,0001.54,0000.41
2022-10-23 21:19:00,,0805.7,5.00,0.00,29.8,28.1,00.0,38.8,31.6,08.5,0000.0,0010.48,0001.56,0000.41
2022-10-23 21:20:00,,0805.8,5.00,0.00,29.8,28.1,00.0,38.8,31.5,08.5,0000.0,0010.52,0001.57,0000.42
2022-10-23 21:21:00,,0805.8,4.99,0.00,29.8,28.1,00.0,38.8,31.6,08.6,0000.0,0009.72,0001.56,0000.42
2022-10-23 21:22:00,,0805.7,5.01,0.00,29.8,28.1,00.0,38.8,31.6,08.6,0000.0,0009.60,0001.54,0000.43
2022-10-23 21:23:00,,0805.9,4.99,0.00,29.8,28.0,00.0,38.8,31.6,08.6,0000.0,0009.36,0001.53,0000.43
2022-10-23 21:24:00,,0806.0,5.02,0.00,29.8,28.0,00.0,38.7,31.5,08.6,0000.0,0009.43,0001.57,0000.44
2022-10-23 21:25:00,,0805.9,4.98,0.00,29.8,28.0,00.0,38.7,31.5,08.7,0000.0,0009.16,0001.59,0000.44
2022-10-23 21:26:00,,0805.8,5.01,0.00,29.8,28.0,00.0,38.7,31.5,08.7,0000.0,0008.98,0001.60,0000.45
2022-10-23 21:27:00,,0805.9,4.99,0.00,29.8,28.0,00.0,38.7,31.5,08.7,0000.0,0008.33,0001.63,0000.47
2022-10-23 21:28:00,,0805.8,5.02,0.00,29.8,28.0,00.0,38.7,31.5,08.8,0000.0,0008.34,0001.66,0000.48
2022-10-23 21:29:00,,0805.8,4.99,0.00,29.8,28.0,00.0,38.7,31.5,08.8,0000.0,0007.73,0001.60,0000.48
2022-10-23 21:30:00,,0805.8,5.01,0.00,29.8,28.0,00.0,38.7,31.5,08.8,0000.0,0006.15,0001.51,0000.49
2022-10-23 21:31:00,,0805.9,4.99,0.00,29.8,28.0,00.0,38.7,31.5,08.9,0000.0,0006.38,0001.49,0000.49
2022-10-23 21:32:00,,0805.7,5.00,0.00,29.8,28.0,00.0,38.7,31.5,08.9,0000.0,0007.09,0001.48,0000.49
2022-10-23 21:33:00,,0805.8,5.00,0.00,29.8,28.0,00.0,38.7,31.5,08.9,0000.0,0006.91,0001.46,0000.49
2022-10-23 21:34:00,,0805.8,4.99,0.00,29.8,28.0,00.0,38.7,31.5,09.0,0000.0,0006.02,0001.45,0000.48
2022-10-23 21:35:00,,0805.9,5.02,0.00,29.7,28.0,00.0,38.7,31.5,08.9,0000.0,0005.98,0001.47,0000.49
2022-10-23 21:36:00,,0805.8,4.99,0.00,29.8,28.0,00.0,38.7,31.5,08.6,0000.0,0006.46,0001.44,0000.49
2022-10-23 21:37:00,,0806.0,5.01,0.00,29.8,28.0,00.0,38.7,31.5,08.5,0000.0,0006.83,0001.39,0000.49
2022-10-23 21:38:00,,0805.9,4.99,0.00,29.7,28.0,00.0,38.7,31.5,08.6,0000.0,0006.71,0001.37,0000.49
2022-10-23 21:39:00,,0805.9,5.01,0.00,29.7,28.0,00.0,38.7,31.4,08.5,0000.0,0006.59,0001.30,0000.49
2022-10-23 21:40:00,,0805.9,5.00,0.00,29.7,28.0,00.0,38.7,31.5,08.5,0000.0,0006.83,0001.34,0000.47
2022-10-23 21:41:00,,0805.9,5.00,0.00,29.7,28.0,00.0,38.6,31.5,08.3,0000.0,0007.35,0001.37,0000.48
2022-10-23 21:42:00,,0806.0,5.00,0.00,29.7,28.0,00.0,38.6,31.5,08.4,0000.0,0007.27,0001.37,0000.48
2022-10-23 21:43:00,,0806.1,4.99,0.00,29.7,28.0,00.0,38.6,31.5,08.3,0000.0,0007.54,0001.45,0000.48
2022-10-23 21:44:00,,0806.2,5.01,0.00,29.7,28.0,00.0,38.6,31.5,08.3,0000.0,0007.40,0001.51,0000.49
2022-10-23 21:45:00,,0806.1,5.00,0.00,29.7,28.0,00.0,38.6,31.5,08.4,0000.0,0008.05,0001.55,0000.49
2022-10-23 21:46:00,,0806.1,4.99,0.00,29.7,28.1,00.0,38.6,31.5,08.3,0000.0,0007.99,0001.58,0000.49
2022-10-23 21:47:00,,0806.1,4.99,0.00,29.7,28.1,00.0,38.6,31.5,08.3,0000.0,0007.83,0001.58,0000.50
2022-10-23 21:48:00,,0806.1,5.01,0.00,29.7,28.1,00.0,38.6,31.5,08.2,0000.0,0007.41,0001.54,0000.50
2022-10-23 21:49:00,,0806.1,4.99,0.00,29.7,28.1,00.0,38.6,31.4,08.1,0000.0,0007.48,0001.54,0000.50
2022-10-23 21:50:00,,0806.0,4.99,0.00,29.7,28.1,00.0,38.6,31.5,07.8,0000.0,0007.70,0001.58,0000.50
2022-10-23 21:51:00,,0806.0,5.02,0.00,29.7,28.1,00.0,38.6,31.5,07.8,0000.0,0007.69,0001.53,0000.50
2022-10-23 21:52:00,,0806.0,5.00,0.00,29.7,28.1,00.0,38.6,31.5,07.9,0000.0,0007.46,0001.55,0000.50
2022-10-23 21:53:00,,0806.0,4.99,0.00,29.7,28.1,00.0,38.6,31.5,07.8,0000.0,0007.49,0001.63,0000.50
2022-10-23 21:54:00,,0805.9,5.00,0.00,29.7,28.1,00.0,38.6,31.5,07.8,0000.0,0007.11,0001.64,0000.48
2022-10-23 21:55:00,,0805.9,5.01,0.00,29.7,28.1,00.0,38.6,31.5,07.7,0000.0,0007.01,0001.63,0000.47
2022-10-23 21:56:00,,0805.8,5.00,0.00,29.7,28.1,00.0,38.6,31.5,07.6,0000.0,0005.84,0001.62,0000.47
2022-10-23 21:57:00,,0805.7,5.00,0.00,29.7,28.1,00.0,38.6,31.4,07.4,0000.0,0005.34,0001.58,0000.48
2022-10-23 21:58:00,,0805.7,4.99,0.00,29.7,28.1,00.0,38.6,31.4,07.3,0000.0,0005.01,0001.57,0000.46
2022-10-23 21:59:00,,0805.7,5.02,0.00,29.7,28.1,00.0,38.6,31.4,07.1,0000.0,0004.97,0001.54,0000.46
